Location: Famechon
(49.7599°N, 2.0615°E)
Time: 06:17:52
(UTC+00:00)

Cosmos 2322 Rocket - Pass Details

Date: 03 February 2023
Orbit: 831 x 852 km, 71.0° (Epoch: 29 March)

Event Time Altitude Azimuth Distance (km) Brightness Sun altitude
Rises 18:15:20 0° 199° (SSW) 3,363 5.7 -14.0°
Reaches altitude 10° 18:17:45 10° 197° (SSW) 2,433 4.9 -14.4°
Maximum altitude 18:23:18 70° 115° (ESE) 885 2.1 -15.3°
Drops below altitude 10° 18:28:53 10° 32° (NNE) 2,454 4.3 -16.2°
Enters shadow 18:28:53 10° 32° (NNE) 2,456 4.3 -16.2°
